Location: Unspecified
(0.0000°N, 0.0000°E)
Time: 13:26:08
(UTC+00:00)

Vanguard 3 - Pass Details

Date: 09 December 2017
Orbit: 508 x 3264 km, 33.3° (Epoch: 26 April)

Event Time Altitude Azimuth Distance (km) Brightness Sun altitude
Rises 19:40:28 0° 325° (NW) 3,934 10.8 -24.7°
Reaches altitude 10° 19:42:57 10° 334° (NNW) 3,269 10.2 -25.3°
Enters shadow 19:50:40 40° 38° (NE) 2,489 9.1 -27.0°
